Content
SEND FEEDBACK

Daily
Averages
Monthly
Summary
Saudi Arabia

MECCA, SAUDI ARABIA


Home > Middle East > Saudi Arabia
Elevation: 531 feet     Latitude: 21 29N     Longitude: 039 50E

WEATHER
 
SELECT A DAY
Number of Records: 176,706;   Date Range: 7/1/96 - 9/20/14
 
SHARE

PRINT THIS DATA

[ ← Previous Day ]
WEATHER ALMANAC - JANUARY 23, 2013
[ Next Day → ]
[ °C ]   °F
Weather ElementAverageHighLow
Temperature81.2 °F95 °F (3:00 pm)71.6 °F (6:00 am)
Dewpoint63.9 °F66.2 °F (9:00 am)62.6 °F (2:00 am)
Humidity55.6 %78 % (9:00 am)25 % (3:00 pm)
Barometer29.98 in30.04 in (9:00 am)29.88 in (3:00 pm)
Wind Speed0.9 mph4.6 mph (5:00 pm)
Weather ElementAverage
Visibility5.9 mi
Wind DirectionENE (78.5 °)

Weather ElementTotal
Precipitation---
Cooling Degree Days18.3 (Base 65)
Growing Degree Days33.3 (Base 50)
Averaged from 31 records on January 23, 2013
WEATHER CONDITIONS BREAKOUT
WIND DIRECTION BREAKOUT
WEATHER BY HOUR - JANUARY 23, 2013
[ °C ]   °F
Local TimeTemperatureDewpointHumidityBarometerVisibilityWind DirectionWind SpeedGust SpeedPrecipitationEventsConditions
12:00 AM77.0 °F64.4 °F65 %30.01 inCalmClear
1:00 AM77.0 °F64.4 °F65 %29.98 inCalmClear
2:00 AM75.2 °F62.6 °F65 %29.98 inCalmClear
3:00 AM74.0 °F64.0 °F65 %29.94 in6.0 miCalm
3:00 AM75.2 °F64.4 °F69 %29.98 inCalmClear
4:00 AM73.4 °F62.6 °F69 %29.98 inCalmClear
5:00 AM73.4 °F62.6 °F69 %29.98 inCalmClear
6:00 AM71.6 °F62.6 °F73 %29.98 inCalmClear
6:00 AM72.0 °F63.0 °F65 %29.95 in6.0 miCalm
7:00 AM71.6 °F62.6 °F73 %29.98 inCalmClear
8:00 AM71.6 °F62.6 °F73 %30.01 inCalmClear
9:00 AM73.0 °F66.0 °F73 %30.00 in6.0 miCalm
9:00 AM73.4 °F66.2 °F78 %30.04 inCalmClear
10:00 AM82.4 °F66.2 °F58 %30.04 in5.6 miCalmClear
11:00 AM86.0 °F64.4 °F48 %30.04 in5.6 miSouth (180°)2.3 mphClear
12:00 PM89.6 °F64.4 °F43 %30.01 in5.6 miWSW (240°)2.3 mphClear
12:00 PM90.0 °F64.0 °F33 %29.96 in6.0 miWSW (240°)2.3 mphHaze
1:00 PM91.4 °F64.4 °F41 %29.98 in5.6 miSSW (210°)2.3 mphClear
2:00 PM93.2 °F64.4 °F38 %29.95 inSSW (200°)2.3 mphClear
3:00 PM95.0 °F63.0 °F25 %29.88 in6.0 miCalm
3:00 PM95.0 °F62.6 °F34 %29.92 inCalmClear
4:00 PM93.2 °F62.6 °F36 %29.92 inWest (270°)2.3 mphClear
5:00 PM89.6 °F62.6 °F40 %29.95 inWSW (240°)4.6 mphClear
6:00 PM86.0 °F64.4 °F48 %29.95 inSW (230°)4.6 mphClear
6:00 PM86.0 °F64.0 °F39 %29.93 in6.0 miSW (230°)4.6 mph
7:00 PM82.4 °F64.4 °F54 %29.98 inCalmClear
8:00 PM80.6 °F64.4 °F58 %29.98 inCalmClear
9:00 PM81.0 °F64.0 °F48 %29.97 in6.0 miCalm
9:00 PM80.6 °F64.4 °F58 %30.01 inCalmClear
10:00 PM78.8 °F66.2 °F65 %30.01 inCalmClear
11:00 PM78.8 °F62.6 °F57 %29.98 inCalmClear
Hourly data recorded from OEMK, located miles away from Mecca, Saudi Arabia







STORIES FROM OUR PARTNERS